Chicopee, MA

11:14 PM EDT on May 24, 2018 (GMT -0400)
Westover Air Reserve Base / Metropolitan Airport

Weather History for KCEF - May, 2014

Change the Weather History Date:

Saturday, May 17, 2014

  Actual Average Record
Temperature  
Mean Temperature 61 °F -  
Max Temperature 70 °F 65 °F 93 °F (2017)
Min Temperature 51 °F 45 °F 36 °F (2016)
Degree Days  
Heating Degree Days 4    
Growing Degree Days 11 (Base 50)    
Moisture  
Dew Point 57 °F    
Average Humidity 86    
Maximum Humidity 100    
Minimum Humidity 33    
Precipitation  
Precipitation 1.64 in - - ()
Sea Level Pressure  
Sea Level Pressure 29.87 in    
Wind  
Wind Speed 14 mph (SW)    
Max Wind Speed 21 mph    
Max Gust Speed 32 mph    
Visibility 6 miles    
Events Fog , Rain    
Averages and records for this station are not official NWS values.
T = Trace of Precipitation, MM = Missing Value Source: NWS Daily Summary

Daily Weather History Graph

Daily Weather History Graph

Search for Another Location

Airport or City:

Astronomy

May. 17, 2014 Rise Set
Actual Time 5:27 AM EDT 8:06 PM EDT
Civil Twilight 4:54 AM EDT 8:38 PM EDT
Nautical Twilight 4:14 AM EDT 9:19 PM EDT
Astronomical Twilight 3:28 AM EDT 10:05 PM EDT
Moon 11:04 PM EDT (5/17) 8:07 AM EDT (5/17)
Length of Visible Light 15h 43m
Length of Day
14h 39m
Waning Gibbous, 89% of the Moon is Illuminated
May 17
Waning Gibbous
May 21
Last Quarter
May 28
New
Jun 5
First Quarter
Jun 13
Full

Hourly Weather History & Observations

Time (EDT) Temp. Dew Point Humidity Pressure Visibility Wind Dir Wind Speed Gust Speed Precip Events Conditions
12:25 AM 68.0 °F 68.0 °F 100% 29.86 in 10.0 mi SSE 17.3 mph 25.3 mph N/A   Light Drizzle
12:58 AM 68.0 °F 67.6 °F 99% 29.84 in 10.0 mi SSE 15.0 mph 24.2 mph 0.00 in   Light Drizzle
1:24 AM 68.0 °F 68.0 °F 100% 29.82 in 10.0 mi SSE 19.6 mph 31.1 mph N/A   Overcast
1:27 AM 68.0 °F 68.0 °F 100% 29.81 in 10.0 mi SSE 20.7 mph 32.2 mph N/A   Light Drizzle
1:58 AM 67.1 °F 66.7 °F 99% 29.83 in 10.0 mi SSE 15.0 mph 24.2 mph 0.02 in Rain Light Rain
2:10 AM 66.2 °F 66.2 °F 100% 29.80 in 10.0 mi SSE 13.8 mph 20.7 mph N/A Rain Rain
2:12 AM 66.2 °F 66.2 °F 100% 29.80 in 10.0 mi SSE 12.7 mph 21.9 mph N/A Rain Rain
2:17 AM 66.2 °F 66.2 °F 100% 29.80 in 10.0 mi SSE 11.5 mph 21.9 mph N/A Rain Rain
2:21 AM 66.2 °F 66.2 °F 100% 29.80 in 8.0 mi SSE 15.0 mph 21.9 mph N/A Rain Rain
2:23 AM 66.2 °F 66.2 °F 100% 29.80 in 7.0 mi SSE 11.5 mph 18.4 mph N/A Rain Rain
2:24 AM 66.2 °F 66.2 °F 100% 29.79 in 6.0 mi SSE 12.7 mph 20.7 mph N/A Rain Rain
2:25 AM 66.2 °F 66.2 °F 100% 29.79 in 6.0 mi SSE 16.1 mph 20.7 mph N/A Rain Rain
2:30 AM 66.2 °F 66.2 °F 100% 29.79 in 5.0 mi SSE 12.7 mph 20.7 mph N/A Rain Rain
2:41 AM 66.2 °F 66.2 °F 100% 29.80 in 4.0 mi South 16.1 mph 21.9 mph N/A Rain Heavy Rain
2:42 AM 66.2 °F 66.2 °F 100% 29.80 in 4.0 mi SSW 16.1 mph 21.9 mph N/A Rain Heavy Rain
2:44 AM 66.2 °F 66.2 °F 100% 29.81 in 2.5 mi SW 16.1 mph 21.9 mph N/A Rain Heavy Rain
2:45 AM 66.2 °F 66.2 °F 100% 29.81 in 1.8 mi SSW 17.3 mph 21.9 mph N/A Rain Heavy Rain
2:46 AM 66.2 °F 66.2 °F 100% 29.81 in 1.2 mi SSW 18.4 mph 21.9 mph N/A Rain Heavy Rain
2:47 AM 66.2 °F 66.2 °F 100% 29.81 in 1.0 mi SSW 17.3 mph 21.9 mph N/A Rain Heavy Rain
2:48 AM 66.2 °F 66.2 °F 100% 29.80 in 0.8 mi SSW 17.3 mph 21.9 mph N/A Rain Heavy Rain
2:50 AM 66.2 °F 66.2 °F 100% 29.81 in 0.8 mi SSW 17.3 mph - N/A Rain Heavy Rain
2:51 AM 66.2 °F 66.2 °F 100% 29.81 in 0.8 mi SSW 16.1 mph - N/A Rain Heavy Rain
2:53 AM 66.2 °F 66.2 °F 100% 29.81 in 0.5 mi SSW 18.4 mph 24.2 mph N/A Fog , Rain Heavy Rain
2:55 AM 66.2 °F 66.2 °F 100% 29.81 in 0.8 mi South 18.4 mph 26.5 mph N/A Rain Heavy Rain
2:57 AM 64.4 °F 64.4 °F 100% 29.81 in 0.8 mi South 18.4 mph 26.5 mph N/A Rain Heavy Rain
2:58 AM 64.4 °F 64.4 °F 100% 29.83 in 1.0 mi South 18.4 mph 26.5 mph 0.67 in Rain Heavy Rain
3:00 AM 64.4 °F 64.4 °F 100% 29.80 in 1.0 mi South 16.1 mph 26.5 mph N/A Rain Heavy Rain
3:01 AM 64.4 °F 64.4 °F 100% 29.81 in 1.0 mi South 15.0 mph 26.5 mph N/A Rain Heavy Rain
3:02 AM 64.4 °F 64.4 °F 100% 29.81 in 1.2 mi South 16.1 mph 26.5 mph N/A Rain Heavy Rain
3:03 AM 64.4 °F 64.4 °F 100% 29.81 in 1.5 mi South 15.0 mph 26.5 mph N/A Rain Heavy Rain
3:04 AM 64.4 °F 64.4 °F 100% 29.81 in 1.8 mi South 15.0 mph 26.5 mph N/A Rain Heavy Rain
3:05 AM 64.4 °F 64.4 °F 100% 29.82 in 2.0 mi South 16.1 mph 26.5 mph N/A Rain Heavy Rain
3:07 AM 64.4 °F 64.4 °F 100% 29.82 in 2.5 mi South 16.1 mph - N/A Rain Rain
3:12 AM 64.4 °F 64.4 °F 100% 29.78 in 2.0 mi SSW 10.4 mph - N/A Rain Heavy Rain
3:14 AM 64.4 °F 64.4 °F 100% 29.79 in 1.8 mi South 13.8 mph - N/A Rain Heavy Rain
3:21 AM 64.4 °F 64.4 °F 100% 29.80 in 2.0 mi South 11.5 mph - N/A Rain Heavy Rain
3:23 AM 64.4 °F 64.4 °F 100% 29.80 in 2.5 mi South 11.5 mph - N/A Rain Heavy Rain
3:26 AM 64.4 °F 64.4 °F 100% 29.80 in 3.0 mi South 10.4 mph 19.6 mph N/A Rain Heavy Rain
3:39 AM 64.4 °F 64.4 °F 100% 29.80 in 2.5 mi NW 12.7 mph - N/A Rain Heavy Rain
3:47 AM 60.8 °F 59.0 °F 94% 29.82 in 3.0 mi West 11.5 mph - N/A Rain Rain
3:49 AM 59.0 °F 59.0 °F 100% 29.81 in 2.5 mi WNW 9.2 mph - N/A Rain Rain
3:51 AM 59.0 °F 59.0 °F 100% 29.81 in 3.0 mi WNW 10.4 mph - N/A Rain Heavy Rain
3:58 AM 59.0 °F 58.6 °F 99% 29.83 in 3.0 mi WNW 5.8 mph - 0.61 in Rain Rain
4:05 AM 59.0 °F 59.0 °F 100% 29.82 in 6.0 mi WNW 5.8 mph - N/A Rain Light Rain
4:40 AM 55.4 °F 55.4 °F 100% 29.85 in 3.0 mi West 8.1 mph - N/A Rain Rain
4:45 AM 55.4 °F 55.4 °F 100% 29.85 in 3.0 mi West 5.8 mph - N/A Rain Rain
4:48 AM 55.4 °F 55.4 °F 100% 29.85 in 4.0 mi West 8.1 mph - N/A Rain Rain
4:50 AM 55.4 °F 55.4 °F 100% 29.85 in 5.0 mi West 9.2 mph - N/A Rain Rain
4:58 AM 54.5 °F 54.3 °F 99% 29.89 in 4.0 mi West 8.1 mph - 0.18 in Rain Rain
5:00 AM 53.6 °F 53.6 °F 100% 29.87 in 4.0 mi West 9.2 mph - N/A Rain Rain
5:54 AM 53.6 °F 51.8 °F 94% 29.89 in 10.0 mi West 4.6 mph - N/A   Mostly Cloudy
5:58 AM 52.9 °F 52.7 °F 99% 29.91 in 10.0 mi WSW 5.8 mph - 0.16 in   Mostly Cloudy
5:59 AM 53.6 °F 51.8 °F 94% 29.90 in 10.0 mi WSW 5.8 mph - N/A   Mostly Cloudy
6:58 AM 52.3 °F 52.0 °F 99% 29.92 in 10.0 mi West 8.1 mph - N/A   Clear
7:58 AM 53.6 °F 51.4 °F 92% 29.95 in 10.0 mi West 4.6 mph - N/A   Clear
8:58 AM 55.8 °F 48.4 °F 76% 29.97 in 10.0 mi West 9.2 mph - N/A   Scattered Clouds
9:58 AM 57.7 °F 47.3 °F 68% 29.98 in 10.0 mi West 4.6 mph - N/A   Partly Cloudy
10:58 AM 61.9 °F 44.2 °F 52% 29.98 in 10.0 mi WNW 12.7 mph 19.6 mph N/A   Clear
10:59 AM 62.6 °F 44.6 °F 52% 29.96 in 10.0 mi NW 12.7 mph 19.6 mph N/A   Clear
11:58 AM 63.5 °F 45.0 °F 51% 30.00 in 10.0 mi Variable 5.8 mph - N/A   Clear
12:58 PM 66.2 °F 43.7 °F 44% 29.98 in 10.0 mi WSW 11.5 mph 18.4 mph N/A   Clear
1:58 PM 67.6 °F 43.7 °F 42% 29.99 in 10.0 mi West 10.4 mph - N/A   Partly Cloudy
2:28 PM 68.0 °F 42.8 °F 40% 29.97 in 10.0 mi WSW 12.7 mph - N/A   Clear
2:58 PM 69.4 °F 42.8 °F 38% 29.99 in 10.0 mi West 9.2 mph - N/A   Clear
3:58 PM 70.0 °F 42.8 °F 37% 29.99 in 10.0 mi WNW 12.7 mph 18.4 mph N/A   Clear
4:28 PM 69.8 °F 41.0 °F 35% 29.97 in 10.0 mi WSW 11.5 mph 23.0 mph N/A   Clear
4:58 PM 69.6 °F 40.6 °F 35% 30.00 in 10.0 mi West 15.0 mph 21.9 mph N/A   Clear
5:31 PM 69.8 °F 41.0 °F 35% 29.98 in 10.0 mi NW 12.7 mph - N/A   Clear
5:58 PM 68.7 °F 38.5 °F 33% 30.01 in 10.0 mi West 11.5 mph - N/A   Clear
6:58 PM 66.4 °F 40.6 °F 39% 30.02 in 10.0 mi NW 10.4 mph - N/A   Clear
7:58 PM 62.2 °F 41.0 °F 46% 30.04 in 10.0 mi NW 8.1 mph - N/A   Clear
8:58 PM 57.7 °F 42.3 °F 56% 30.07 in 10.0 mi NW 10.4 mph - N/A   Mostly Cloudy
9:58 PM 56.8 °F 41.4 °F 56% 30.09 in 10.0 mi North 6.9 mph - N/A   Clear
10:58 PM 54.3 °F 42.6 °F 65% 30.11 in 10.0 mi NNW 4.6 mph - N/A   Clear
11:58 PM 51.6 °F 42.4 °F 71% 30.12 in 10.0 mi North 2.3 mph - N/A   Clear